Weather History for Crestview, FL

Change the Weather History Date:

Thursday, July 18, 2013

  Actual Average Record
Temperature  
Mean Temperature 80 °F -  
Max Temperature 91 °F 91 °F 102 °F (2000)
Min Temperature 72 °F 71 °F 66 °F (2000)
Cooling Degree Days 16    
Growing Degree Days 30 (Base 50)    
Moisture  
Dew Point 72 °F    
Average Humidity 83    
Maximum Humidity 94    
Minimum Humidity 55    
Precipitation  
Precipitation 0.55 in - - ()
Sea Level Pressure  
Sea Level Pressure 30.10 in    
Wind  
Wind Speed 4 mph (NW)    
Max Wind Speed 15 mph    
Max Gust Speed 23 mph    
Visibility 7 miles    
Events Rain , Thunderstorm    
Averages and records for this station are not official NWS values.
T = Trace of Precipitation, MM = Missing Value Source: NWS Daily Summary

Daily Weather History Graph

Daily Weather History Graph

Search for Another Location

Airport:

Trip Planner

Search our weather history database for the weather conditions in past years. The results will help you decide how hot, cold, wet, or windy it might be!

Date:

Astronomy

Jul. 18, 2013 Rise Set
Actual Time 5:55 AM CDT 7:49 PM CDT
Civil Twilight 5:28 AM CDT 8:16 PM CDT
Nautical Twilight 4:55 AM CDT 8:48 PM CDT
Astronomical Twilight 4:21 AM CDT 9:23 PM CDT
Moon 3:47 PM CDT (7/18) 1:41 AM CDT (7/18)
Length of Visible Light 14h 47m
Length of Day
13h 53m
Waxing Gibbous, 77% of the Moon is Illuminated
Jul 18
Waxing Gibbous
Jul 22
Full
Jul 29
Last Quarter
Aug 6
New
Aug 14
First Quarter

Hourly Weather History & Observations

Time (CDT) Temp. Heat Index Dew Point Humidity Pressure Visibility Wind Dir Wind Speed Gust Speed Precip Events Conditions
12:53 AM 77.0 °F - 71.1 °F 82% 30.15 in 10.0 mi NE 3.5 mph - N/A   Clear
1:53 AM 75.9 °F - 69.1 °F 79% 30.13 in 10.0 mi NNE 4.6 mph - N/A   Clear
2:53 AM 73.9 °F - 69.1 °F 85% 30.10 in 10.0 mi Calm Calm - N/A   Clear
3:53 AM 73.0 °F - 70.0 °F 90% 30.09 in 10.0 mi Calm Calm - N/A   Clear
4:53 AM 73.0 °F - 69.1 °F 87% 30.12 in 10.0 mi North 4.6 mph - N/A   Clear
5:53 AM 72.0 °F - 68.0 °F 87% 30.12 in 10.0 mi Calm Calm - N/A   Clear
6:53 AM 72.0 °F - 68.0 °F 87% 30.12 in 10.0 mi NE 4.6 mph - N/A   Clear
7:53 AM 75.9 °F - 69.1 °F 79% 30.14 in 10.0 mi ENE 4.6 mph - N/A   Clear
8:53 AM 80.1 °F 83.2 °F 70.0 °F 71% 30.14 in 10.0 mi Calm Calm - N/A   Clear
9:53 AM 82.9 °F 87.5 °F 71.1 °F 67% 30.15 in 10.0 mi Calm Calm - N/A   Clear
10:53 AM 86.0 °F 92.2 °F 72.0 °F 63% 30.15 in 10.0 mi Calm Calm - N/A   Clear
11:53 AM 89.1 °F 95.0 °F 71.1 °F 55% 30.14 in 10.0 mi East 3.5 mph - N/A   Clear
12:53 PM 89.1 °F 96.0 °F 72.0 °F 57% 30.11 in 10.0 mi NNE 4.6 mph - N/A   Mostly Cloudy
1:04 PM 84.2 °F 90.9 °F 73.4 °F 70% 30.12 in 7.0 mi Variable 4.6 mph - 0.00 in Rain , Thunderstorm Light Thunderstorms and Rain
1:53 PM 87.1 °F 94.5 °F 73.0 °F 63% 30.08 in 10.0 mi West 4.6 mph - 0.00 in Thunderstorm Thunderstorm
2:21 PM 78.8 °F - 73.4 °F 83% 30.10 in 0.8 mi WNW 4.6 mph - 0.14 in Rain , Thunderstorm Heavy Thunderstorms and Rain
2:23 PM 78.8 °F - 73.4 °F 83% 30.11 in 0.5 mi SSW 8.1 mph - 0.17 in Rain , Thunderstorm Heavy Thunderstorms and Rain
2:29 PM 77.0 °F - 73.4 °F 89% 30.10 in 1.0 mi SW 13.8 mph 19.6 mph 0.18 in Rain , Thunderstorm Light Thunderstorms and Rain
2:33 PM 77.0 °F - 73.4 °F 89% 30.09 in 4.0 mi SSW 12.7 mph 19.6 mph 0.18 in Rain , Thunderstorm Light Thunderstorms and Rain
2:41 PM 77.0 °F - 73.4 °F 89% 30.10 in 10.0 mi WSW 15.0 mph 23.0 mph 0.18 in Rain , Thunderstorm Light Thunderstorms and Rain
2:53 PM 75.0 °F - 71.1 °F 87% 30.10 in 3.0 mi West 11.5 mph 20.7 mph 0.19 in Rain , Thunderstorm Thunderstorms and Rain
2:58 PM 75.2 °F - 71.6 °F 89% 30.10 in 2.0 mi West 12.7 mph 19.6 mph 0.02 in Rain , Thunderstorm Light Thunderstorms and Rain
3:06 PM 75.2 °F - 71.6 °F 89% 30.09 in 1.0 mi West 11.5 mph 20.7 mph 0.11 in Rain , Thunderstorm Heavy Thunderstorms and Rain
3:14 PM 75.2 °F - 71.6 °F 89% 30.10 in 0.8 mi West 8.1 mph - 0.19 in Rain , Thunderstorm Heavy Thunderstorms and Rain
3:22 PM 75.2 °F - 71.6 °F 89% 30.11 in 1.2 mi NW 8.1 mph - 0.27 in Rain , Thunderstorm Heavy Thunderstorms and Rain
3:38 PM 73.4 °F - 71.6 °F 94% 30.09 in 3.0 mi WNW 8.1 mph 18.4 mph 0.34 in Rain , Thunderstorm Rain
3:53 PM 73.9 °F - 70.0 °F 87% 30.09 in 7.0 mi North 5.8 mph - 0.34 in Rain , Thunderstorm Light Thunderstorms and Rain
4:27 PM 73.4 °F - 71.6 °F 94% 30.08 in 10.0 mi Calm Calm - 0.02 in Rain Light Rain
4:53 PM 75.0 °F - 72.0 °F 90% 30.06 in 10.0 mi Calm Calm - 0.02 in   Clear
5:53 PM 80.1 °F 84.2 °F 73.0 °F 79% 30.04 in 10.0 mi Calm Calm - N/A   Clear
6:53 PM 81.0 °F 86.7 °F 75.0 °F 82% 30.05 in 10.0 mi Calm Calm - N/A   Clear
7:53 PM 79.0 °F - 75.0 °F 88% 30.06 in 10.0 mi Calm Calm - N/A   Clear
8:53 PM 78.1 °F - 75.0 °F 90% 30.09 in 10.0 mi Calm Calm - N/A   Clear
9:53 PM 77.0 °F - 73.9 °F 90% 30.11 in 10.0 mi Calm Calm - N/A   Partly Cloudy
10:53 PM 75.0 °F - 73.0 °F 94% 30.11 in 8.0 mi Calm Calm - N/A   Scattered Clouds
11:29 PM 75.2 °F - 71.6 °F 89% 30.12 in 7.0 mi Calm Calm - N/A   Partly Cloudy
11:53 PM 75.0 °F - 73.0 °F 94% 30.10 in 6.0 mi Calm Calm - N/A   Partly Cloudy